[[{"header":{"parameterUnit":"m.s-1","parameterCategory":1,"la1":30.2991,"la2":30.254,"lo1":-89.0895,"lo2":-89.0444,"dy":0.0017,"dx":0.0017,"nx":28,"ny":28,"refTime":"2023-09-17T09:00:00:Z","depth":0,"parameterNumber":2,"parameterNumberName":"U-component_of_WINDS"},"data":[0,0,0,0,0,0,0,0,0,0,0,0,0,0,0,0,0,0,0,0,0,0,0,0,0,0,0,0,0,0,0,0,0,0,0,0,0,0,0,0,0,0,0,0,0,0,0,0,0,0,0,0,0,0,0,0,0,0,-2.3343,-2.3345,0,-2.3473,-2.3475,-2.3476,-2.351,-2.3509,-2.3508,-2.3507,-2.3637,-2.3641,-2.3645,0,0,0,0,0,0,0,0,0,0,0,0,0,-2.312,-2.3124,-2.3343,-2.3345,-2.3347,-2.3473,-2.3475,-2.3477,-2.351,-2.3509,-2.3508,-2.3507,-2.3636,-2.3641,-2.3646,0,0,0,0,0,0,0,0,0,0,0,0,0,-2.323,-2.3125,-2.3343,-2.3378,-2.3383,-2.3473,-2.3475,-2.3477,-2.351,-2.3509,-2.3508,-2.3506,-2.3634,-2.364,-2.3646,-2.3709,0,0,-2.3666,-2.3668,0,0,0,0,0,0,0,0,-2.3224,-2.3238,-2.3372,-2.3376,-2.3381,-2.3474,-2.3444,-2.3555,-2.351,-2.3462,-2.3507,-2.3506,-2.3584,-2.3594,-2.3621,-2.3716,-2.3721,-2.3666,-2.367,-2.3673,-2.3675,0,0,0,0,0,0,0,-2.3216,-2.3233,-2.3395,-2.3373,-2.3379,-2.3387,-2.3401,-2.3465,-2.3528,-2.3466,-2.3468,-2.3484,-2.3586,-2.3615,-2.3624,-2.3723,-2.3666,-2.3672,-2.3676,-2.3678,-2.3875,-2.3876,0,0,0,0,0,0,-2.3203,-2.3226,-2.3391,-2.3399,-2.3298,-2.3392,-2.3408,-2.3445,-2.3527,-2.3538,-2.3484,-2.3485,-2.3605,-2.3617,-2.3629,-2.3707,-2.3673,-2.3679,-2.3682,-2.3873,-2.3875,-2.3877,0,0,0,0,0,0,-2.3198,-2.3217,-2.3385,-2.3313,-2.3335,-2.3397,-2.3439,-2.3449,-2.3477,-2.3541,-2.3552,-2.3503,-2.3604,-2.362,-2.3689,-2.3712,-2.3681,-2.3687,-2.3872,-2.3874,-2.3876,-2.3864,0,0,0,0,0,0,-2.3192,-2.3215,-2.3241,-2.3314,-2.3339,-2.3444,-2.344,-2.3452,-2.3489,-2.349,-2.3561,-2.3572,-2.3604,-2.368,-2.3695,-2.372,-2.3692,-2.387,-2.3873,-2.3875,-2.3863,-2.3866,-2.3868,0,0,0,0,0,-2.3183,-2.3232,-2.3242,-2.3261,-2.3372,-2.3446,-2.346,-2.3497,-2.349,-2.3516,-2.3557,-2.3569,-2.3707,-2.3686,-2.3705,-2.3731,-2.3868,-2.3872,-2.3875,-2.3862,-2.3865,-2.3868,0,0,0,0,0,0,-2.3159,-2.3242,-2.3254,-2.3328,-2.3379,-2.3451,-2.3484,-2.35,-2.3554,-2.3553,-2.3596,-2.3612,-2.3678,-2.3712,-2.3687,-2.3796,-2.3788,-2.3795,-2.3771,-2.3775,-2.3778,-2.3768,-2.3697,0,0,0,0,0,-2.3162,-2.3216,-2.3285,-2.3343,-2.3369,-2.3422,-2.3455,-2.348,-2.3535,-2.3557,-2.3603,-2.3654,-2.3709,-2.3745,-2.3799,-2.3869,-2.3884,-2.3896,-2.3899,-2.3901,-2.3906,-2.3944,-2.395,-2.3887,-2.3887,-2.3887,0,0,-2.3169,-2.3221,-2.3252,-2.334,-2.3383,-2.3436,-2.344,-2.3497,-2.3536,-2.3565,-2.3633,-2.3669,-2.3729,-2.3799,-2.3831,-2.3829,-2.3926,-2.3905,-2.3906,-2.391,-2.3948,-2.3953,-2.3959,-2.389,-2.3889,-2.3889,0,0,-2.3208,-2.3254,-2.3307,-2.335,-2.3416,-2.3451,-2.3463,-2.3533,-2.3558,-2.3627,-2.365,-2.3697,-2.3791,-2.3833,-2.3867,-2.3923,-2.3936,-2.3939,-2.3953,-2.3989,-2.3994,-2.3999,-2.4017,-2.4023,-2.3944,-2.3944,-2.3944,0,-2.3208,-2.3291,-2.3332,-2.3388,-2.3425,-2.3455,-2.3508,-2.3547,-2.3626,-2.3651,-2.3647,-2.3766,-2.3809,-2.3888,-2.3901,-2.3928,-2.3943,-2.393,-2.399,-2.3995,-2.4,-2.4018,-2.4025,-2.3944,-2.3944,-2.3944,-2.3944,0,-2.3287,-2.3343,-2.3378,-2.3455,-2.3496,-2.355,-2.3598,-2.3635,-2.3656,-2.3691,-2.3761,-2.3814,-2.3879,-2.39,-2.3921,-2.3982,-2.3978,-2.3982,-2.3974,-2.4005,-2.4023,-2.403,-2.3944,-2.3944,-2.3944,-2.3944,0,0,-2.3313,-2.3412,-2.3424,-2.3459,-2.3534,-2.3578,-2.3633,-2.3697,-2.3727,-2.3781,-2.3827,-2.3907,-2.3911,-2.3949,-2.3975,-2.4007,-2.4046,-2.4007,-2.4009,-2.4011,-2.4115,-2.411,-2.4117,-2.4056,-2.4058,-2.4059,-2.4109,0,-2.336,-2.3461,-2.3499,-2.358,-2.3633,-2.3662,-2.371,-2.376,-2.3794,-2.3843,-2.388,-2.3935,-2.3937,-2.396,-2.3994,-2.4034,-2.4067,-2.4031,-2.4098,-2.41,-2.408,-2.4127,-2.4122,-2.4167,-2.4116,-2.4118,-2.4119,0,-2.3429,-2.3484,-2.3571,-2.3639,-2.3662,-2.3704,-2.3766,-2.3813,-2.387,-2.3893,-2.3935,-2.396,-2.4017,-2.4007,-2.4086,-2.406,-2.409,-2.4114,-2.4117,-2.4123,-2.411,-2.4133,-2.4183,-2.4188,-2.413,-2.4129,-2.4128,0,-2.3437,-2.3534,-2.3598,-2.3627,-2.3708,-2.3737,-2.3772,-2.3828,-2.3864,-2.3918,-2.3942,-2.4001,-2.4033,-2.4079,-2.4118,-2.4107,-2.4192,-2.4186,-2.4211,-2.421,-2.4226,-2.4224,-2.428,-2.4248,-2.4248,-2.4248,-2.4248,0,-2.3486,-2.3537,-2.3603,-2.3642,-2.37,-2.3743,-2.3799,-2.3836,-2.3886,-2.3932,-2.3961,-2.4003,-2.4053,-2.4101,-2.4132,-2.4192,-2.4207,-2.4225,-2.4233,-2.4222,-2.4219,-2.4241,-2.4238,-2.425,-2.425,-2.4249,-2.4249,0,-2.3504,-2.355,-2.3622,-2.3693,-2.3712,-2.3751,-2.3812,-2.385,-2.3886,-2.3944,-2.396,-2.4016,-2.4074,-2.4118,-2.4194,-2.4215,-2.4278,-2.4286,-2.4258,-2.4262,-2.4284,-2.4281,-2.4354,-2.4365,-2.4327,-2.4328,-2.4328,0,-2.3531,-2.3571,-2.3647,-2.368,-2.3715,-2.3768,-2.3806,-2.385,-2.3887,-2.3956,-2.3985,-2.4046,-2.4097,-2.4189,-2.4235,-2.4293,-2.4302,-2.4324,-2.4311,-2.4298,-2.43,-2.4297,-2.43,-2.4325,-2.4325,-2.4325,-2.4325,0,-2.3573,-2.3594,-2.3647,-2.3708,-2.3752,-2.3802,-2.3852,-2.3878,-2.3931,-2.3972,-2.4032,-2.4071,-2.4149,-2.4208,-2.4271,-2.4305,-2.4324,-2.4329,-2.4338,-2.4326,-2.4308,-2.4317,-2.4261,-2.4327,-2.4327,-2.4327,-2.4326,-2.4326,-2.3595,-2.3632,-2.3691,-2.3749,-2.3792,-2.3838,-2.3878,-2.3919,-2.3971,-2.4038,-2.4061,-2.4123,-2.4179,-2.4264,-2.43,-2.4348,-2.4348,-2.4361,-2.4364,-2.4366,-2.4365,-2.4302,-2.436,-2.436,-2.436,-2.436,-2.436,0,-2.3637,-2.3677,-2.373,-2.38,-2.3845,-2.386,-2.3917,-2.3953,-2.4008,-2.4059,-2.4109,-2.4177,-2.4235,-2.4287,-2.4346,-2.4375,-2.4385,-2.4389,-2.4387,-2.4394,-2.4362,-2.4348,-2.438,-2.438,-2.438,-2.438,-2.438,-2.438,-2.3665,-2.3727,-2.3755,-2.3839,-2.3878,-2.394,-2.397,-2.4013,-2.4054,-2.413,-2.4178,-2.4212,-2.4263,-2.4327,-2.438,-2.4393,-2.4413,-2.4415,-2.443,-2.4399,-2.4396,-2.4394,-2.4381,-2.4419,-2.4419,-2.4458,-2.4459,-2.4459]},{"header":{"parameterUnit":"m.s-1","parameterCategory":1,"la1":30.2991,"la2":30.254,"lo1":-89.0895,"lo2":-89.0444,"dy":0.0017,"dx":0.0017,"nx":28,"ny":28,"refTime":"2023-09-17T09:00:00:Z","depth":0,"parameterNumber":3,"parameterNumberName":"V-component_of_WINDS"},"data":[0,0,0,0,0,0,0,0,0,0,0,0,0,0,0,0,0,0,0,0,0,0,0,0,0,0,0,0,0,0,0,0,0,0,0,0,0,0,0,0,0,0,0,0,0,0,0,0,0,0,0,0,0,0,0,0,0,0,-2.2411,-2.2413,0,-2.256,-2.2562,-2.2564,-2.2574,-2.2572,-2.2571,-2.2569,-2.2719,-2.2724,-2.2729,0,0,0,0,0,0,0,0,0,0,0,0,0,-2.2133,-2.2138,-2.2411,-2.2413,-2.2415,-2.256,-2.2562,-2.2564,-2.2574,-2.2572,-2.257,-2.2568,-2.2717,-2.2723,-2.273,0,0,0,0,0,0,0,0,0,0,0,0,0,-2.2265,-2.214,-2.2411,-2.2438,-2.2441,-2.256,-2.2562,-2.2565,-2.2575,-2.2572,-2.257,-2.2567,-2.2715,-2.2723,-2.2731,-2.2832,0,0,-2.2756,-2.276,0,0,0,0,0,0,0,0,-2.2258,-2.2275,-2.2432,-2.2436,-2.244,-2.2546,-2.2519,-2.2654,-2.2575,-2.2524,-2.2569,-2.2566,-2.2663,-2.2675,-2.2709,-2.2839,-2.2845,-2.2757,-2.2762,-2.2766,-2.2768,0,0,0,0,0,0,0,-2.2249,-2.2269,-2.247,-2.2434,-2.2439,-2.2441,-2.2457,-2.2545,-2.2605,-2.2528,-2.2529,-2.2547,-2.2665,-2.2701,-2.2712,-2.2847,-2.2757,-2.2764,-2.2769,-2.2772,-2.3069,-2.3072,0,0,0,0,0,0,-2.2235,-2.2261,-2.2465,-2.2475,-2.2341,-2.2448,-2.2466,-2.2515,-2.2605,-2.2616,-2.2549,-2.2547,-2.2688,-2.2703,-2.2718,-2.2843,-2.2765,-2.2773,-2.2778,-2.3066,-2.307,-2.3073,0,0,0,0,0,0,-2.2229,-2.2253,-2.2459,-2.2369,-2.2395,-2.2456,-2.251,-2.2519,-2.2555,-2.262,-2.2631,-2.2574,-2.2686,-2.2706,-2.2804,-2.2848,-2.2777,-2.2785,-2.3063,-2.3067,-2.3071,-2.3092,0,0,0,0,0,0,-2.2221,-2.2251,-2.229,-2.2369,-2.24,-2.2544,-2.2513,-2.2524,-2.2569,-2.2568,-2.2647,-2.2658,-2.2686,-2.2791,-2.2812,-2.2858,-2.2791,-2.3059,-2.3065,-2.307,-2.3088,-2.3097,-2.3105,0,0,0,0,0,-2.2211,-2.2289,-2.2292,-2.2316,-2.245,-2.2546,-2.2563,-2.2595,-2.2573,-2.2613,-2.2655,-2.2655,-2.284,-2.2801,-2.2825,-2.2874,-2.3057,-2.3063,-2.307,-2.3084,-2.3095,-2.3104,0,0,0,0,0,0,-2.2211,-2.23,-2.2304,-2.241,-2.2471,-2.2548,-2.2599,-2.2605,-2.2673,-2.2668,-2.2704,-2.2722,-2.2819,-2.2856,-2.2812,-2.2977,-2.2946,-2.2957,-2.2949,-2.296,-2.2968,-2.2956,-2.2798,0,0,0,0,0,-2.2224,-2.2295,-2.2368,-2.2455,-2.2485,-2.2537,-2.258,-2.2599,-2.2663,-2.2688,-2.2738,-2.2799,-2.2871,-2.2917,-2.2987,-2.3094,-2.3111,-2.3139,-2.3147,-2.3154,-2.3163,-2.3223,-2.3236,-2.3095,-2.3094,-2.3094,0,0,-2.225,-2.2307,-2.235,-2.2457,-2.2506,-2.2579,-2.2558,-2.2635,-2.269,-2.27,-2.2796,-2.2834,-2.2905,-2.3008,-2.3056,-2.3042,-2.3206,-2.3162,-2.3167,-2.3173,-2.3231,-2.3245,-2.3256,-2.3099,-2.3098,-2.3097,0,0,-2.2335,-2.2386,-2.2464,-2.2515,-2.259,-2.2625,-2.2643,-2.272,-2.2747,-2.2844,-2.2853,-2.2918,-2.3041,-2.3091,-2.3133,-2.324,-2.3243,-2.3262,-2.3304,-2.3363,-2.3374,-2.3384,-2.3422,-2.3436,-2.3271,-2.3271,-2.3271,0,-2.2358,-2.2469,-2.2503,-2.2582,-2.2628,-2.2643,-2.2722,-2.2769,-2.2863,-2.2895,-2.2878,-2.3034,-2.3082,-2.3198,-2.3224,-2.3258,-2.328,-2.3252,-2.337,-2.338,-2.339,-2.3427,-2.3441,-2.3273,-2.3273,-2.3272,-2.3272,0,-2.2493,-2.257,-2.2624,-2.2717,-2.277,-2.2848,-2.2894,-2.2943,-2.2959,-2.2994,-2.3094,-2.3153,-2.3235,-2.3264,-2.3279,-2.3383,-2.3372,-2.3362,-2.3332,-2.3405,-2.344,-2.3455,-2.3275,-2.3275,-2.3274,-2.3274,0,0,-2.2581,-2.2693,-2.2712,-2.2755,-2.2841,-2.29,-2.298,-2.3062,-2.3104,-2.3169,-2.3236,-2.3341,-2.3333,-2.338,-2.3402,-2.3453,-2.3534,-2.3437,-2.3439,-2.3453,-2.3652,-2.3659,-2.3675,-2.3537,-2.354,-2.3542,-2.3646,0,-2.2675,-2.2818,-2.2852,-2.2974,-2.3046,-2.3062,-2.3131,-2.3191,-2.3227,-2.3292,-2.3332,-2.3406,-2.339,-2.3419,-2.347,-2.3513,-2.3575,-2.3507,-2.36,-2.3603,-2.3581,-2.3693,-2.37,-2.3795,-2.366,-2.3663,-2.3665,0,-2.2804,-2.2874,-2.3003,-2.3082,-2.3113,-2.3174,-2.3253,-2.3316,-2.3385,-2.3408,-2.3462,-2.3478,-2.3561,-2.3528,-2.3643,-2.3595,-2.3636,-2.3663,-2.3668,-2.3677,-2.3637,-2.3705,-2.3826,-2.384,-2.3687,-2.3685,-2.3683,0,-2.2855,-2.2981,-2.3075,-2.3111,-2.3205,-2.3248,-2.3289,-2.3355,-2.3403,-2.3472,-2.3503,-2.358,-2.3622,-2.3682,-2.3719,-2.3691,-2.3831,-2.38,-2.3852,-2.3851,-2.388,-2.3877,-2.4009,-2.3907,-2.3907,-2.3906,-2.3906,0,-2.2956,-2.3035,-2.31,-2.3157,-2.3246,-2.3285,-2.3372,-2.3413,-2.3472,-2.3538,-2.3556,-2.3617,-2.3663,-2.373,-2.376,-2.3851,-2.387,-2.389,-2.3897,-2.3889,-2.3886,-2.3915,-2.3909,-2.391,-2.3909,-2.3908,-2.3908,0,-2.3027,-2.3074,-2.3178,-2.3259,-2.3281,-2.3343,-2.3412,-2.3469,-2.3506,-2.3589,-2.3611,-2.367,-2.3751,-2.3794,-2.3894,-2.3914,-2.4016,-2.402,-2.3994,-2.3996,-2.4046,-2.4041,-2.42,-2.4223,-2.4106,-2.4107,-2.4108,0,-2.3088,-2.3149,-2.3238,-2.3284,-2.3326,-2.34,-2.345,-2.3491,-2.3542,-2.3626,-2.3673,-2.3755,-2.3823,-2.3951,-2.4002,-2.408,-2.4085,-2.4135,-2.4096,-2.4086,-2.4085,-2.4081,-2.4088,-2.4142,-2.4143,-2.4144,-2.4144,0,-2.3192,-2.3213,-2.3284,-2.3365,-2.3424,-2.3489,-2.3553,-2.359,-2.3642,-2.3698,-2.3782,-2.3835,-2.3939,-2.402,-2.4102,-2.4143,-2.4153,-2.4157,-2.4173,-2.4164,-2.4147,-2.4157,-2.4012,-2.4152,-2.4152,-2.4151,-2.4151,-2.415,-2.3259,-2.3315,-2.3387,-2.3466,-2.352,-2.358,-2.3638,-2.3684,-2.3755,-2.3844,-2.3864,-2.3953,-2.4021,-2.4132,-2.4176,-2.4246,-2.4236,-2.4259,-2.4265,-2.427,-2.4272,-2.4136,-2.4261,-2.4261,-2.4261,-2.4261,-2.426,0,-2.3363,-2.3411,-2.3485,-2.3575,-2.3638,-2.3644,-2.3716,-2.3768,-2.3846,-2.391,-2.3977,-2.4074,-2.4154,-2.4212,-2.4294,-2.4338,-2.4345,-2.4358,-2.4355,-2.4364,-2.4276,-2.4254,-2.4352,-2.4352,-2.4352,-2.4352,-2.4352,-2.4351,-2.3425,-2.352,-2.355,-2.3672,-2.3719,-2.3807,-2.3848,-2.3904,-2.3955,-2.4063,-2.413,-2.4169,-2.4231,-2.4318,-2.4391,-2.4406,-2.4435,-2.4448,-2.4464,-2.438,-2.437,-2.4361,-2.434,-2.4454,-2.4454,-2.4546,-2.4547,-2.4547]}]]